Regional Weather Roundup
Issued by NWS Newport/Morehead, NC

Current Version | Previous Version | Graphics & Text | Print | Product List | Glossary On
Versions: 1 2 3 4 5 6 7 8 9 10 11 12 13 14 15 16 17 18 19 20 21 22 23 24 25 26 27 28 29 30 31 32 33 34 35 36 37 38 39 40 41 42 43 44 45 46 47 48 49 50
000 ASUS42 KMHX 300710 RWRMHX WEATHER ROUNDUP FOR EASTERN NORTH CAROLINA NATIONAL WEATHER SERVICE NEWPORT/MOREHEAD CITY NC 300 AM EDT TUE SEP 30 2014 NOTE: "FAIR" INDICATES FEW OR NO CLOUDS BELOW 12,000 FEET WITH NO SIGNIFICANT WEATHER AND/OR OBSTRUCTIONS TO VISIBILITY NCZ015>017-031-032-045>047-102-103-300800- NORTH COAST CITY SKY/WX TMP DP RH WIND PRES REMARKS EDENTON CLOUDY 64 62 96 N3 29.92F ELIZABETH CITY CLOUDY 64 62 93 CALM 29.92F KITTY HAWK DRIZZLE 68 67 96 N5 29.89F MANTEO CLOUDY 68 67 96 N6 29.91F $$ NCZ045>047-081-094-103-104-300800- CENTRAL COAST CITY SKY/WX TMP DP RH WIND PRES REMARKS FRISCO CLOUDY 67 66 97 VRB6 29.90F SWANQUARTER N/A 66 N/A N/A N1 29.88S $$ NCZ095-097-098-100-101-300800- SOUTHERN COAST CITY SKY/WX TMP DP RH WIND PRES REMARKS BEAUFORT CLOUDY 67 62 84 N6 29.89F CEDAR ISLAND N/A 70 N/A N/A NW9G21 29.94S JACKSONVILLE MOCLDY 65 63 93 NE6 29.90F NEWPORT NOT AVBL PINEY ISLAND CLOUDY 70 59 68 N8 29.89F WILMINGTON MOCLDY 65 65 100 N5 29.90F FOG $$ NCZ011>013-027>030-043-044-078>080-089-090>093-098-300800- COASTAL PLAIN CITY SKY/WX TMP DP RH WIND PRES REMARKS AHOSKIE FOG 60 60 98 CALM 29.93F VSB 1/4 CLINTON CLEAR 60 60 100 CALM 29.92F FOG ELIZABETHTOWN CLEAR 62 62 100 CALM 29.91F FOG GOLDSBORO CLEAR 62 62 98 CALM 29.91S GREENVILLE CLOUDY 64 63 94 N3 29.95S HAVELOCK LGT RAIN 67 65 93 N8 29.91F KENANSVILLE CLOUDY 63 61 94 CALM 29.93F FOG KINSTON CLOUDY 64 64 98 CALM 29.93S NEW BERN MOCLDY 66 63 90 E3 29.92F RICHLANDS PTCLDY 63 59 88 CALM 29.91F ROANOKE RAPIDS NOT AVBL ROCKY MOUNT FOG 63 62 97 N5 29.93F VSB 1/2 WASHINGTON MOCLDY 64 62 94 CALM 29.92F WHITEVILLE CLEAR 62 61 96 CALM 29.90F FOG $$ AMZ130-135-150-152-154-156-158-170-250-252-270-ANZ085-086-088-633-658-670-300800- MARINE OBSERVATIONS STATION/POSITION TIME TEMP WIND PRES WAVE SWELL AIR SEA DIR/SP/G HT/PER HT/PER (UTC) (F) (DEG/KT/KT) (MB) (FT/S) (FT/S) CHESAPEAKE LIGHT 0600 69 360/ 9/ 10 1014.0 BUOY 44014 0700 71 72 350/ 10/ 12 1012.4 2/ 8 2/ 8 DUCK 0700 69 72 330/ 9/ 9 1012.2 2E DUCK 0700 N/A 2/ 8 OREGON INLET 0700 68 73 350/ 5/ 8 1012.4 BUOY 44095 0700 73 N/A 3/ 8 20E OREGON INLET NOT AVBL HATTERAS CG 0700 71 75 360/ 14/ 16 1012.7 DIAMOND BUOY 0700 70 330/ 17/ 19 1011.4 3/ 8 2/ 8 CAPE LOOKOUT 0600 69 360/ 10/ 11 1012.6 BEAUFORT LAB 0700 69 75 10/ 7/ 9 1011.8 30 SE NEW RIVER 0700 73 80 20/ 16/ 19 1011.3 3/ 8 2/ 8 5 SE WRIGHTSVILL 0600 66 76 360/ 14/ 16 N/A BUOY 41002 0553 79 81 160/ 4/ 4 1011.3 3/ 8 3/ 8 BUOY 41004 0700 76 81 40/ 14/ 17 1009.8 5/ 6 2/ 8 $$

USA.gov is the U.S. government's official web portal to all federal, state and local government web resources and services.